Weather Roundup
Issued by NWS Corpus Christi, TX

Home | Current Version | Previous Version | Text Only | Print | Product List | Glossary On
Versions: 1 2 3 4 5 6 7 8 9 10 11 12 13 14 15 16 17 18 19 20 21 22 23 24 25 26 27 28 29 30 31 32 33 34 35 36 37 38 39 40 41 42 43 44 45 46 47 48 49 50
000
ASUS44 KCRP 282310
HRRCRP

SOUTH TEXAS REGIONAL WEATHER ROUNDUP
NATIONAL WEATHER SERVICE CORPUS CHRISTI TX
600 PM CDT FRI APR 28 2017


TXZ229>244-290000-
...CORPUS CHRISTI AREA OBSERVATIONS...

CITY           SKY/WX    TMP DP  RH WIND       PRES   REMARKS
CORPUS CHRISTI MOSUNNY   88  72  58 SE25      29.51S HX  94
NAS CORPUS CHR MOSUNNY   86  75  69 SE22G31   29.53S HAZE    HX  95
ROCKPORT       SUNNY     84  74  71 SE17      29.56R HX  91
KINGSVILLE NAS SUNNY     91  76  61 SE17G30   29.49R HX 103
ALICE          SUNNY     96  70  42 SE20G31   29.47S HX 102
ORANGE GROVE   SUNNY     96  72  45 SE24G33   29.49S HX 104
FALFURRIAS     SUNNY     97  64  33 SE20G29   29.47S HX  99
$$

...VICTORIA AREA OBSERVATIONS...

CITY           SKY/WX    TMP DP  RH WIND       PRES   REMARKS
VICTORIA       SUNNY     87  71  58 S21G30    29.56F HX  93
BEEVILLE       FAIR      93  75  55 SE14G20   29.51F HX 104
PLEASANTON     SUNNY     98  62  30 SW6       29.49S HX  99
SAN ANTONIO    MOSUNNY   92  66  42 SE13      29.53S HX  94
$$

...LAREDO AREA OBSERVATIONS...

CITY           SKY/WX    TMP DP  RH WIND       PRES   REMARKS
LAREDO         SUNNY    101  63  28 SE6       29.46S HX 103
COTULLA        MOSUNNY  101  61  26 S8        29.46F HX 102
DEL RIO        CLOUDY    87  67  51 E10       29.48F HX  90
MCALLEN        SUNNY     95  71  45 SE23G31   29.48S HX 102
HEBBRONVILLE   SUNNY     98  59  27 S10       29.49S HX  98
$$

...OTHER TEXAS OBSERVATIONS...

CITY           SKY/WX    TMP DP  RH WIND       PRES   REMARKS
BROWNSVILLE    MOSUNNY   88  74  63 SE26G37   29.54S HX  96
HOUSTON        PTSUNNY   85  73  67 SE24G32   29.63S HX  91
COL. STATION   SUNNY     90  72  55 SE24G31   29.58R HX  97
AUSTIN         MOSUNNY   93  68  43 SE17      29.53S HX  97
WACO           CLOUDY    88  70  55 S15G22    29.54F HX  93
FORT WORTH     CLOUDY    86  69  56 S17       29.54S HX  90
WICHITA FALLS  CLOUDY    82  62  50 SE13      29.55F
LUBBOCK        CLOUDY    83  35  18 S20       29.57F
EL PASO        CLOUDY    83  30  14 W30G39    29.56F
$$

...MARINE OBSERVATIONS...

STATION/POSITION TIME  SKY/WX   TEMP    WIND        PRES    VSBY  WAVE   SWELL
                                AIR SEA DIR/SP/G                  HT/PER HT/PER
                 (UTC)          (F)     (DEG/KT/KT) (MB)    (MI)  (FT/S) (FT/S)
PORT ARANSAS     2300            78 80  120/ 16/ 18 1000.8S
BUOY 90 E PORT A 2150            78 77  130/ 16/ 19 1003.0          6/ 8   2/16
BUOY 45 SE BAFFI 2150            78     150/ 16/ 17 1000.0          7/ 7   5/ 8
BUOY 200 E PT IS 2150            80 79  150/ 19/ 25 1004.6          7/ 7
BUOY 15 E GALVES 2150            77 76  130/ 14/ 16 1005.0          4/ 8   3/ 8
$$



USA.gov is the U.S. government's official web portal to all federal, state and local government web resources and services.